Location: Augirein
(42.9320°N, 0.9181°E)
Time: 01:44:54
(UTC+00:00)

Cosmos 1825 - Pass Details

Date: 20 June 2021
Orbit: 501 x 506 km, 82.5° (Epoch: 04 August)

Event Time Altitude Azimuth Distance (km) Brightness Sun altitude
Exits shadow 01:47:45 21° 277° (W) 1,181 3.8 -19.0°
Maximum altitude 01:48:10 21° 287° (WNW) 1,168 3.9 -18.9°
Drops below altitude 10° 01:51:07 10° 338° (NNW) 1,727 5.4 -18.7°
Sets 01:53:38 0° 355° (N) 2,616 6.7 -18.5°
